Home > Weather > Angers > Past weeks

Flag for France Past Weather in Angers, Pays de la Loire, France — Yesterday and Last 2 Weeks

Now
54 °F

Clear.


Feels Like: 54 °F
Forecast: 56 / 69 °F
Wind: 2 mph from North

Location: Le Mans Airport

Current Time: Jun 26, 2016 at 3:12:02 AM

Latest Report: Jun 26, 2016 at 2:30 AM


Visibility: 10 mi

Pressure: 30.15 "Hg

Humidity: 82%

Dew Point: 48 °F

Location of AngersLocation

Past Weather in Angers — Graph

°F

Angers Temperature Yesterday

Maximum temperature yesterday: 72 °F (at 4:00 PM)
Minimum temperature yesterday: 57 °F (at 5:00 AM)
Average temperature yesterday: 64 °F

High & Low Weather Summary for the Past Weeks

 TemperatureHumidityPressure
High84 °F (Jun 23, 2:00 PM)100% (Jun 11, 4:00 AM)30.33 "Hg (Jun 11, 4:00 AM)
Low50 °F (Jun 18, 4:30 AM)38% (Jun 25, 3:00 PM)29.50 "Hg (Jun 15, 1:30 AM)
Average64 °F80%29.94 "Hg
* Reported Jun 11 2:00 AM — Jun 26 2:00 AM, Angers, Weather by CustomWeather, © 2016

Note: Actual official high and low records may vary slightly from our data, if they occured in-between our weather recording intervals... More about our weather records

Advertising

Angers Weather History for the Previous 24 Hours

Scroll right to see more
 ConditionsComfort  
Time TempWeatherWind HumidityBarometerVisibility
2:00 AM
Sun, Jun 26
55 °FClear.No wind77%30.15 "Hg10 mi
1:30 AM57 °FClear.2 mph77%30.15 "Hg10 mi
1:00 AM57 °FPassing clouds.3 mph72%30.15 "HgN/A
12:30 AM57 °FPassing clouds.3 mph72%30.15 "HgN/A
12:00 AM59 °FClear.3 mph68%30.15 "Hg10 mi
11:30 PM
Sat, Jun 25
61 °FClear.2 mph63%30.15 "Hg10 mi
11:00 PM61 °FPassing clouds.3 mph63%30.15 "HgN/A
10:30 PM63 °FPassing clouds.3 mph59%30.15 "HgN/A
10:00 PM63 °FPassing clouds.5 mph59%30.12 "HgN/A
9:30 PM64 °FPassing clouds.7 mph52%30.12 "HgN/A
9:00 PM68 °FPassing clouds.5 mph46%30.12 "HgN/A
8:30 PM68 °FPassing clouds.7 mph46%30.12 "HgN/A
8:00 PM68 °FPassing clouds.8 mph43%30.12 "HgN/A
7:30 PM70 °FMore clouds than sun.7 mph46%30.09 "HgN/A
7:00 PM70 °FOvercast.8 mph40%30.09 "HgN/A
6:30 PM68 °FPassing clouds.8 mph43%30.09 "HgN/A
6:00 PM68 °FOvercast.9 mph46%30.09 "HgN/A
5:30 PM70 °FPartly sunny.8 mph40%30.09 "HgN/A
5:00 PM70 °FOvercast.7 mph43%30.12 "HgN/A
4:30 PM68 °FOvercast.8 mph46%30.12 "HgN/A
4:00 PM72 °FSunny.6 mph38%30.12 "Hg10 mi
3:30 PM68 °FBroken clouds.8 mph40%30.12 "HgN/A
3:00 PM70 °FPartly sunny.8 mph38%30.12 "HgN/A
2:30 PM68 °FPartly sunny.8 mph46%30.12 "HgN/A
2:00 PM66 °FMostly cloudy.8 mph49%30.12 "HgN/A
1:30 PM68 °FPartly sunny.7 mph43%30.12 "HgN/A
1:00 PM68 °FBroken clouds.7 mph49%30.12 "HgN/A
12:30 PM66 °FPartly sunny.7 mph52%30.12 "HgN/A
12:00 PM66 °FPartly sunny.6 mph56%30.12 "HgN/A
11:30 AM64 °FBroken clouds.6 mph60%30.12 "HgN/A
11:00 AM64 °FPartly sunny.7 mph60%30.12 "HgN/A
10:30 AM63 °FScattered clouds.5 mph68%30.12 "HgN/A
10:00 AM63 °FSunny.3 mph68%30.12 "Hg10 mi
9:30 AM61 °FCloudy.3 mph72%30.12 "HgN/A
9:00 AM61 °FMostly cloudy.3 mph72%30.12 "HgN/A
8:30 AM59 °FMostly cloudy.3 mph77%30.12 "HgN/A
8:00 AM59 °FMostly cloudy.3 mph82%30.12 "HgN/A
7:30 AM59 °FOvercast.3 mph77%30.09 "HgN/A
7:00 AM59 °FMostly cloudy.2 mph77%30.09 "HgN/A
6:30 AM57 °FOvercast.3 mph82%30.09 "HgN/A
6:00 AM57 °FOvercast.3 mph82%30.09 "HgN/A
5:30 AM57 °FPassing clouds.2 mph82%30.09 "HgN/A
5:00 AM57 °FClear.2 mph82%30.09 "Hg10 mi
4:30 AM59 °FPassing clouds.3 mph77%30.09 "HgN/A
4:00 AM59 °FClear.3 mph82%30.09 "Hg10 mi
3:30 AM61 °FPassing clouds.5 mph77%30.09 "HgN/A
3:00 AM61 °FPassing clouds.3 mph77%30.09 "HgN/A
Weather by CustomWeather, © 2016

See weather overviewHow to use our weather pages